Location: Baix
(44.7118°N, 4.7648°E)
Time: 06:20:10
(UTC+00:00)

Vanguard 1 - Pass Details

Date: 03 December 2020
Orbit: 648 x 3834 km, 34.3° (Epoch: 21 January)

Event Time Altitude Azimuth Distance (km) Brightness Sun altitude
Rises 09:59:05 0° 266° (W) 4,845 13.4 19.9°
Reaches altitude 10° 10:03:03 10° 250° (WSW) 4,328 13.4 20.2°
Maximum altitude 10:11:09 20° 209° (SSW) 4,404 14.2 20.7°
Drops below altitude 10° 10:22:23 10° 170° (S) 6,169 16.2 21.3°
Sets 10:30:03 0° 157° (SSE) 7,639 16.1 21.7°
